EW0415 Weather Reports


time (UTC)temp
C
wind
direction
speed
KPH
gust
KPH
rain 1hr
cm
rain 24hr
cm
rain mn
cm
humidity
%
barometer
mb
20260903222523 14 0 1.6 11.3 0.00 0.00 0.00 76 1018.0
20260903222020 14 18 3.2 11.3 0.00 0.00 0.00 76 1018.1
20260903221537 14 19 1.6 8.0 0.00 0.00 0.00 77 1018.2
20260903221019 14 22 3.2 8.0 0.00 0.00 0.00 77 1018.3
20260903220520 14 26 3.2 11.3 0.00 0.00 0.00 77 1018.2
20260903220042 14 45 3.2 11.3 0.00 0.00 0.00 78 1018.0
20260903215522 14 27 3.2 8.0 0.00 0.00 0.00 78 1017.8
20260903215015 13 360 1.6 9.7 0.00 0.00 0.00 78 1017.8
20260903214536 13 360 3.2 9.7 0.00 0.00 0.00 78 1018.0
20260903214023 13 360 3.2 8.0 0.00 0.00 0.00 78 1018.0
20260903213520 13 360 0.0 6.4 0.00 0.00 0.00 78 1018.0
20260903213036 13 360 1.6 17.7 0.00 0.00 0.00 78 1017.9
20260903212520 13 0 3.2 17.7 0.00 0.00 0.00 78 1017.6
20260903212019 13 360 1.6 12.9 0.00 0.00 0.00 78 1017.4
20260903211535 13 360 3.2 12.9 0.00 0.00 0.00 78 1017.4
20260903211018 13 96 3.2 6.4 0.00 0.00 0.00 78 1017.3
20260903210519 13 0 0.0 4.8 0.00 0.00 0.00 78 1017.6
20260903210034 13 100 0.0 8.0 0.00 0.00 0.00 79 1017.5
20260903205516 13 360 1.6 8.0 0.00 0.00 0.00 79 1017.6
20260903205018 13 360 1.6 9.7 0.00 0.00 0.00 79 1017.9
20260903204534 13 360 1.6 9.7 0.00 0.00 0.00 79 1017.8
20260903204018 13 0 1.6 12.9 0.00 0.00 0.00 79 1017.8
20260903203517 13 0 1.6 12.9 0.00 0.00 0.00 80 1017.9
20260903203033 13 118 3.2 12.9 0.00 0.00 0.00 80 1018.0
20260903202520 13 96 3.2 11.3 0.00 0.00 0.00 80 1017.8
20260903202019 13 21 1.6 11.3 0.00 0.00 0.00 80 1018.1
20260903201535 13 27 0.0 8.0 0.00 0.00 0.00 81 1018.3
20260903201023 13 25 1.6 8.0 0.00 0.00 0.00 81 1018.3
20260903200518 13 13 1.6 12.9 0.00 0.00 0.00 81 1018.4
20260903200034 13 13 3.2 12.9 0.00 0.00 0.00 81 1018.3
20260903195516 12 17 3.2 8.0 0.00 0.00 0.00 81 1018.3
20260903195020 12 0 1.6 6.4 0.00 0.00 0.00 81 1018.5
20260903194534 12 17 3.2 8.0 0.00 0.00 0.00 81 1018.5
20260903194017 12 17 1.6 12.9 0.00 0.00 0.00 82 1018.5
20260903193518 12 16 3.2 12.9 0.00 0.00 0.00 82 1018.4
20260903193035 12 11 3.2 12.9 0.00 0.00 0.00 82 1018.6
20260903192519 12 18 3.2 8.0 0.00 0.00 0.00 82 1018.7
20260903192019 12 18 3.2 8.0 0.00 0.00 0.00 82 1018.8
20260903191532 12 26 1.6 12.9 0.00 0.00 0.00 82 1018.9
20260903191019 12 0 3.2 12.9 0.00 0.00 0.00 82 1018.9
20260903190517 12 34 3.2 9.7 0.00 0.00 0.00 82 1018.7
20260903190037 12 43 1.6 9.7 0.00 0.00 0.00 82 1018.8
20260903185515 12 49 1.6 9.7 0.00 0.00 0.00 82 1018.6
20260903185018 12 59 3.2 11.3 0.00 0.00 0.00 81 1018.3
20260903184537 12 58 3.2 11.3 0.00 0.00 0.00 81 1018.1
20260903184016 12 83 3.2 9.7 0.00 0.00 0.00 81 1018.2
20260903183520 12 65 0.0 8.0 0.00 0.00 0.00 80 1018.6
20260903183035 12 66 0.0 12.9 0.00 0.00 0.00 80 1018.7
20260903182522 12 74 1.6 12.9 0.00 0.00 0.00 80 1018.2
20260903182021 12 257 1.6 9.7 0.00 0.00 0.00 80 1018.2
20260903181536 12 258 0.0 4.8 0.00 0.00 0.00 79 1018.5
20260903181020 12 0 0.0 3.2 0.00 0.00 0.00 79 1018.9
20260903180519 12 0 0.0 0.0 0.00 0.00 0.00 79 1019.2
20260903180045 12 0 0.0 0.0 0.00 0.00 0.00 78 1019.3
20260903175518 12 0 0.0 0.0 0.00 0.00 0.00 78 1019.4
20260903175019 12 0 0.0 0.0 0.00 0.00 0.00 78 1019.4
20260903174536 12 0 0.0 0.0 0.00 0.00 0.00 78 1019.3
20260903174018 12 0 0.0 0.0 0.00 0.00 0.00 78 1019.3
20260903173520 13 0 0.0 0.0 0.00 0.00 0.00 78 1019.3
20260903173034 13 0 0.0 0.0 0.00 0.00 0.00 78 1019.4
20260903172518 13 0 0.0 3.2 0.00 0.00 0.00 78 1019.7
20260903172017 13 0 0.0 6.4 0.00 0.00 0.00 77 1019.8
20260903171543 13 0 1.6 6.4 0.00 0.00 0.00 77 1020.0
20260903171019 13 256 1.6 6.4 0.00 0.00 0.00 77 1020.2
20260903170516 13 244 0.0 6.4 0.00 0.00 0.00 77 1020.2
20260903170043 13 0 0.0 3.2 0.00 0.00 0.00 76 1020.1
20260903165522 13 0 0.0 3.2 0.00 0.00 0.00 76 1020.1
20260903165018 13 0 0.0 1.6 0.00 0.00 0.00 76 1020.1
20260903164542 13 0 0.0 1.6 0.00 0.00 0.00 76 1020.1
20260903164019 13 0 0.0 1.6 0.00 0.00 0.00 75 1020.1
20260903163517 13 0 0.0 1.6 0.00 0.00 0.00 75 1020.3
20260903163036 13 0 0.0 0.0 0.00 0.00 0.00 75 1020.4
20260903162515 13 0 0.0 0.0 0.00 0.00 0.00 75 1020.5
20260903162018 13 0 0.0 0.0 0.00 0.00 0.00 75 1020.6
20260903161533 13 0 0.0 0.0 0.00 0.00 0.00 74 1020.5
20260903161019 13 0 0.0 0.0 0.00 0.00 0.00 74 1020.4
20260903160522 13 0 0.0 0.0 0.00 0.00 0.00 74 1020.3
20260903160038 13 0 0.0 3.2 0.00 0.00 0.00 74 1020.4
20260903155518 13 0 0.0 3.2 0.00 0.00 0.00 74 1020.2
20260903155020 13 0 0.0 4.8 0.00 0.00 0.00 74 1020.3
20260903154538 13 0 0.0 4.8 0.00 0.00 0.00 74 1020.3
20260903154020 13 0 0.0 0.0 0.00 0.00 0.00 74 1020.5
20260903153520 13 0 0.0 0.0 0.00 0.00 0.00 74 1020.5
20260903153032 13 0 0.0 0.0 0.00 0.00 0.00 74 1020.6
20260903152516 13 0 0.0 3.2 0.00 0.00 0.00 74 1020.7
20260903152016 13 0 0.0 3.2 0.00 0.00 0.00 74 1020.8
20260903151537 13 0 0.0 3.2 0.00 0.00 0.00 74 1020.9
20260903151018 13 0 0.0 1.6 0.00 0.00 0.00 73 1020.9
20260903150523 13 0 0.0 1.6 0.00 0.00 0.00 73 1020.9
20260903150057 13 0 0.0 1.6 0.00 0.00 0.00 73 1021.0
20260903145517 13 0 0.0 3.2 0.00 0.00 0.00 73 1021.1
20260903145017 13 0 0.0 3.2 0.00 0.00 0.00 73 1021.1
20260903144537 13 0 0.0 3.2 0.00 0.00 0.00 73 1021.2
20260903144022 13 0 0.0 1.6 0.00 0.00 0.00 73 1021.3
20260903143519 13 0 0.0 1.6 0.00 0.00 0.00 73 1021.4
20260903143035 13 0 0.0 0.0 0.00 0.00 0.00 73 1021.4
20260903142518 13 0 0.0 1.6 0.00 0.00 0.00 73 1021.5
20260903142022 13 0 0.0 3.2 0.00 0.00 0.00 73 1021.4
20260903141536 13 0 0.0 3.2 0.00 0.00 0.00 73 1021.5
20260903141018 13 0 0.0 3.2 0.00 0.00 0.00 72 1021.6
20260903140518 13 0 0.0 0.0 0.00 0.00 0.00 72 1021.6
20260903140039 13 0 0.0 0.0 0.00 0.00 0.00 72 1021.6
20260903135516 13 0 0.0 0.0 0.00 0.00 0.00 72 1021.6
20260903135016 13 0 0.0 0.0 0.00 0.00 0.00 72 1021.7
20260903134531 13 0 0.0 0.0 0.00 0.00 0.00 72 1021.9
20260903134021 13 0 0.0 0.0 0.00 0.00 0.00 72 1021.9
20260903133515 13 0 0.0 0.0 0.00 0.00 0.00 72 1021.8
20260903133038 13 0 0.0 0.0 0.00 0.00 0.00 72 1022.0
20260903132522 13 0 0.0 0.0 0.00 0.00 0.00 72 1021.9
20260903132020 13 0 0.0 0.0 0.00 0.00 0.00 72 1022.1
20260903131536 13 0 0.0 0.0 0.00 0.00 0.00 72 1022.0
20260903131019 13 0 0.0 0.0 0.00 0.00 0.00 72 1022.1
20260903130519 13 0 0.0 0.0 0.00 0.00 0.00 72 1022.2
20260903130035 13 0 0.0 0.0 0.00 0.00 0.00 72 1022.2
20260903125518 13 0 0.0 0.0 0.00 0.00 0.00 72 1022.3
20260903125016 13 0 0.0 0.0 0.00 0.00 0.00 72 1022.3
20260903124543 13 0 0.0 0.0 0.00 0.00 0.00 72 1022.4
20260903124019 13 0 0.0 0.0 0.00 0.00 0.00 72 1022.3
20260903123522 13 0 0.0 0.0 0.00 0.00 0.00 72 1022.4
20260903123036 13 0 0.0 0.0 0.00 0.00 0.00 72 1022.5
20260903122516 13 0 0.0 0.0 0.00 0.00 0.00 72 1022.6
20260903122016 13 0 0.0 0.0 0.00 0.00 0.00 72 1022.6
20260903121532 13 0 0.0 0.0 0.00 0.00 0.00 72 1022.9
20260903121017 13 0 0.0 0.0 0.00 0.00 0.00 71 1022.9
20260903120522 13 0 0.0 0.0 0.00 0.00 0.00 71 1022.8
20260903120031 13 0 0.0 0.0 0.00 0.00 0.00 71 1022.9
20260903115515 13 0 0.0 0.0 0.00 0.00 0.00 71 1023.0
20260903115019 13 0 0.0 0.0 0.00 0.00 0.00 71 1022.9
20260903114535 13 0 0.0 0.0 0.00 0.00 0.00 71 1023.0
20260903114021 13 0 0.0 0.0 0.00 0.00 0.00 70 1023.0
20260903113519 13 0 0.0 0.0 0.00 0.00 0.00 70 1023.0
20260903113033 13 0 0.0 0.0 0.00 0.00 0.00 70 1022.8
20260903112519 13 0 0.0 0.0 0.00 0.00 0.00 70 1022.8
20260903112019 13 0 0.0 0.0 0.00 0.00 0.00 70 1022.8
20260903111533 13 0 0.0 0.0 0.00 0.00 0.00 69 1022.8
20260903111018 13 0 0.0 0.0 0.00 0.00 0.00 69 1022.7
20260903110517 13 0 0.0 0.0 0.00 0.00 0.00 69 1022.7
20260903110036 13 0 0.0 0.0 0.00 0.00 0.00 68 1022.6
20260903105520 13 0 0.0 0.0 0.00 0.00 0.00 68 1022.6
20260903105021 13 0 0.0 0.0 0.00 0.00 0.00 68 1022.6
20260903104535 13 0 0.0 0.0 0.00 0.00 0.00 68 1022.6
20260903104022 13 0 0.0 0.0 0.00 0.00 0.00 67 1022.4
20260903103516 13 0 0.0 0.0 0.00 0.00 0.00 67 1022.5
20260903103032 13 0 0.0 0.0 0.00 0.00 0.00 67 1022.4
20260903102517 13 0 0.0 0.0 0.00 0.00 0.00 67 1022.2
20260903102019 14 0 0.0 0.0 0.00 0.00 0.00 66 1022.2
20260903101536 14 0 0.0 0.0 0.00 0.00 0.00 67 1022.2
20260903101017 14 0 0.0 0.0 0.00 0.00 0.00 67 1022.0
20260903100519 14 0 0.0 0.0 0.00 0.00 0.00 67 1022.0
20260903100036 14 0 0.0 0.0 0.00 0.00 0.00 67 1021.9
20260903095525 14 0 0.0 0.0 0.00 0.00 0.00 67 1021.8
20260903095019 14 0 0.0 0.0 0.00 0.00 0.00 67 1021.8
20260903094534 15 0 0.0 0.0 0.00 0.00 0.00 67 1021.8
20260903094016 15 0 0.0 0.0 0.00 0.00 0.00 67 1021.8
20260903093519 15 0 0.0 0.0 0.00 0.00 0.00 67 1021.8
20260903093035 15 0 0.0 0.0 0.00 0.00 0.00 67 1021.9
20260903092520 15 0 0.0 0.0 0.00 0.00 0.00 66 1021.9
20260903092018 15 0 0.0 0.0 0.00 0.00 0.00 66 1021.7
20260903091534 15 0 0.0 0.0 0.00 0.00 0.00 66 1021.7
20260903091016 15 0 0.0 0.0 0.00 0.00 0.00 66 1021.6
20260903090518 15 0 0.0 0.0 0.00 0.00 0.00 66 1021.6
20260903090034 15 0 0.0 0.0 0.00 0.00 0.00 66 1021.5
20260903085520 15 0 0.0 0.0 0.00 0.00 0.00 66 1021.5
20260903085022 15 0 0.0 3.2 0.00 0.00 0.00 65 1021.5
20260903084543 15 0 0.0 3.2 0.00 0.00 0.00 65 1021.5
20260903084016 15 0 0.0 3.2 0.00 0.00 0.00 65 1021.5
20260903083516 15 0 0.0 3.2 0.00 0.00 0.00 65 1021.6
20260903083035 15 0 0.0 4.8 0.00 0.00 0.00 65 1021.5
20260903082515 15 0 0.0 4.8 0.00 0.00 0.00 64 1021.4
20260903082018 15 0 0.0 4.8 0.00 0.00 0.00 64 1021.3
20260903081535 15 0 0.0 4.8 0.00 0.00 0.00 64 1021.3
20260903081017 16 238 0.0 4.8 0.00 0.00 0.00 64 1021.1
20260903080516 16 238 0.0 4.8 0.00 0.00 0.00 64 1021.2
20260903080041 16 238 0.0 4.8 0.00 0.00 0.00 64 1021.0
20260903075521 16 0 0.0 4.8 0.00 0.00 0.00 64 1021.0
20260903075019 16 0 0.0 4.8 0.00 0.00 0.00 64 1020.9
20260903074541 16 237 1.6 8.0 0.00 0.00 0.00 63 1020.9
20260903074024 16 238 1.6 8.0 0.00 0.00 0.00 64 1020.8
20260903073519 16 238 3.2 8.0 0.00 0.00 0.00 64 1020.8
20260903073033 16 241 1.6 8.0 0.00 0.00 0.00 63 1020.6
20260903072519 16 0 0.0 11.3 0.00 0.00 0.00 63 1020.7
20260903072018 16 246 3.2 11.3 0.00 0.00 0.00 62 1020.8
20260903071535 16 242 1.6 11.3 0.00 0.00 0.00 62 1020.8
20260903071017 16 248 3.2 11.3 0.00 0.00 0.00 62 1020.9
20260903070515 16 270 1.6 9.7 0.00 0.00 0.00 62 1020.8
20260903070037 16 275 3.2 9.7 0.00 0.00 0.00 62 1020.9
20260903065521 17 0 3.2 9.7 0.00 0.00 0.00 62 1020.8
20260903065020 17 273 1.6 9.7 0.00 0.00 0.00 63 1020.6
20260903064533 16 273 1.6 9.7 0.00 0.00 0.00 62 1020.5
20260903064017 17 279 1.6 11.3 0.00 0.00 0.00 62 1020.5
20260903063522 17 304 3.2 11.3 0.00 0.00 0.00 61 1020.5
20260903063031 17 251 1.6 8.0 0.00 0.00 0.00 62 1020.5
20260903062518 17 0 1.6 12.9 0.00 0.00 0.00 61 1020.5
20260903062019 17 275 3.2 12.9 0.00 0.00 0.00 61 1020.5
20260903061538 17 215 4.8 9.7 0.00 0.00 0.00 61 1020.5
20260903061022 17 222 3.2 11.3 0.00 0.00 0.00 61 1020.5
20260903060518 17 202 1.6 17.7 0.00 0.00 0.00 62 1020.4
20260903060041 17 252 4.8 17.7 0.00 0.00 0.00 63 1020.5
20260903055519 17 113 3.2 12.9 0.00 0.00 0.00 65 1020.5
20260903055020 17 226 3.2 12.9 0.00 0.00 0.00 67 1020.4
20260903054539 17 205 3.2 12.9 0.00 0.00 0.00 68 1020.6
20260903054019 16 228 3.2 17.7 0.00 0.00 0.00 68 1020.5
20260903053522 16 229 4.8 17.7 0.00 0.00 0.00 67 1020.6
20260903053045 16 249 3.2 16.1 0.00 0.00 0.00 67 1020.4
20260903052521 16 256 3.2 16.1 0.00 0.00 0.00 67 1020.4
20260903052016 16 206 4.8 16.1 0.00 0.00 0.00 67 1020.4
20260903051537 16 256 4.8 14.5 0.00 0.00 0.00 67 1020.3
20260903051017 16 268 3.2 16.1 0.00 0.00 0.00 68 1020.3
20260903050519 16 203 6.4 16.1 0.00 0.00 0.00 68 1020.3
20260903050038 16 148 3.2 11.3 0.00 0.00 0.00 69 1020.3
20260903045519 16 0 1.6 12.9 0.00 0.00 0.00 69 1020.2
20260903045016 16 257 3.2 24.1 0.00 0.00 0.00 69 1020.2
20260903044532 16 236 4.8 24.1 0.00 0.00 0.00 69 1020.2
20260903044018 16 259 3.2 14.5 0.00 0.00 0.00 70 1020.2
20260903043520 16 201 4.8 16.1 0.00 0.00 0.00 69 1020.1
20260903043035 16 250 4.8 16.1 0.00 0.00 0.00 69 1020.1
20260903042517 16 238 6.4 16.1 0.00 0.00 0.00 69 1020.1
20260903042022 17 226 1.6 12.9 0.00 0.00 0.00 70 1020.0
20260903041535 16 208 0.0 9.7 0.00 0.00 0.00 70 1020.0
20260903041019 17 202 3.2 14.5 0.00 0.00 0.00 69 1020.1
20260903040517 17 206 3.2 14.5 0.00 0.00 0.00 70 1020.0
20260903040037 17 222 1.6 9.7 0.00 0.00 0.00 70 1020.0
20260903035516 17 223 1.6 17.7 0.00 0.00 0.00 70 1020.1
20260903035018 17 0 1.6 17.7 0.00 0.00 0.00 70 1020.1
20260903034531 17 197 4.8 17.7 0.00 0.00 0.00 71 1020.0
20260903034019 17 240 3.2 12.9 0.00 0.00 0.00 72 1020.1
20260903033517 17 293 1.6 12.9 0.00 0.00 0.00 73 1020.0
20260903033034 17 267 3.2 12.9 0.00 0.00 0.00 74 1020.1
20260903032523 17 251 3.2 9.7 0.00 0.00 0.00 74 1020.2
20260903032022 17 252 3.2 11.3 0.00 0.00 0.00 75 1020.1
20260903031534 16 251 3.2 11.3 0.00 0.00 0.00 75 1020.1
20260903031019 16 239 3.2 11.3 0.00 0.00 0.00 76 1020.2
20260903030516 16 235 3.2 14.5 0.00 0.00 0.00 77 1020.2
20260903030033 16 255 4.8 14.5 0.00 0.00 0.00 77 1020.1
20260903025519 16 210 4.8 9.7 0.00 0.00 0.00 78 1020.1
20260903025016 16 190 3.2 11.3 0.00 0.00 0.00 79 1020.2
20260903024535 16 225 3.2 16.1 0.00 0.00 0.00 79 1020.1
20260903024016 16 230 4.8 16.1 0.00 0.00 0.00 80 1020.1
20260903023517 16 209 1.6 17.7 0.00 0.00 0.00 81 1020.2
20260903023034 16 205 3.2 17.7 0.00 0.00 0.00 82 1020.3
20260903022520 16 213 4.8 14.5 0.00 0.00 0.00 82 1020.2
20260903022019 16 270 1.6 11.3 0.00 0.00 0.00 83 1020.3
20260903021534 16 263 3.2 11.3 0.00 0.00 0.00 83 1020.2
20260903021020 16 248 3.2 11.3 0.00 0.00 0.00 84 1020.2
20260903020516 16 199 1.6 6.4 0.00 0.00 0.00 83 1020.2
20260903020036 16 0 0.0 8.0 0.00 0.00 0.00 83 1020.3
20260903015520 16 194 1.6 8.0 0.00 0.00 0.00 83 1020.3
20260903015016 15 196 0.0 6.4 0.00 0.00 0.00 84 1020.4
20260903014532 15 0 0.0 11.3 0.00 0.00 0.00 83 1020.3
20260903014018 15 194 3.2 16.1 0.00 0.00 0.00 82 1020.3
20260903013515 15 271 4.8 19.3 0.00 0.00 0.00 82 1020.3
20260903013035 15 329 4.8 19.3 0.00 0.00 0.00 81 1020.2
20260903012521 15 330 6.4 16.1 0.00 0.00 0.00 81 1020.1
20260903012015 15 271 6.4 17.7 0.00 0.00 0.00 81 1020.1
20260903011535 15 265 6.4 17.7 0.00 0.00 0.00 81 1020.1
20260903011021 15 265 6.4 16.1 0.00 0.00 0.00 81 1020.1
20260903010519 15 264 4.8 12.9 0.00 0.00 0.00 82 1020.0
20260903010032 15 336 6.4 16.1 0.00 0.00 0.00 82 1020.1
20260903005518 15 318 4.8 17.7 0.00 0.00 0.00 82 1020.3
20260903005020 15 266 4.8 17.7 0.00 0.00 0.00 82 1020.2
20260903004532 15 312 4.8 14.5 0.00 0.00 0.00 83 1020.2
20260903004018 15 309 4.8 16.1 0.00 0.00 0.00 83 1020.1
20260903003520 15 318 6.4 16.1 0.00 0.00 0.00 83 1020.3
20260903003032 15 304 6.4 17.7 0.00 0.00 0.00 84 1020.2
20260903002521 15 325 8.0 17.7 0.00 0.00 0.00 84 1020.2
20260903002020 15 292 6.4 16.1 0.00 0.00 0.00 84 1020.3
20260903001533 15 296 4.8 17.7 0.00 0.00 0.00 84 1020.3
20260903001022 15 301 4.8 17.7 0.00 0.00 0.00 84 1020.3
20260903000519 15 317 4.8 19.3 0.00 0.00 0.00 85 1020.3
20260903000036 14 302 8.0 19.3 0.00 0.00 0.00 85 1020.3
20260902235518 14 315 4.8 16.1 0.00 0.00 0.00 85 1020.3
20260902235019 14 320 4.8 16.1 0.00 0.00 0.00 85 1020.2
20260902234533 14 327 6.4 20.9 0.00 0.00 0.00 85 1020.1
20260902234018 14 313 6.4 20.9 0.00 0.00 0.00 86 1020.1
20260902233520 13 284 6.4 17.7 0.00 0.00 0.00 86 1020.0
20260902233033 13 333 4.8 17.7 0.00 0.00 0.00 86 1019.9
20260902232519 13 308 6.4 17.7 0.00 0.00 0.00 86 1020.0
20260902232019 13 298 4.8 12.9 0.00 0.00 0.00 86 1019.9
20260902231534 12 314 1.6 8.0 0.00 0.00 0.00 86 1019.9
20260902231018 12 324 0.0 6.4 0.00 0.00 0.00 86 1019.8
20260902230518 12 323 1.6 6.4 0.00 0.00 0.00 86 1019.7
20260902230034 12 323 0.0 6.4 0.00 0.00 0.00 85 1019.8
20260902225516 12 323 1.6 8.0 0.00 0.00 0.00 85 1019.7
20260902225018 12 0 3.2 8.0 0.00 0.00 0.00 85 1019.6
20260902224542 12 331 1.6 6.4 0.00 0.00 0.00 85 1019.7
20260902224017 12 332 0.0 6.4 0.00 0.00 0.00 85 1019.6
20260902223521 11 332 1.6 6.4 0.00 0.00 0.00 85 1019.5
20260902223036 11 331 0.0 4.8 0.00 0.00 0.00 85 1019.3